• Join FlightAware (Why Join?)
  • Login
  • US Flag 
12:47PM EDT


 

Airport Tracker/Info


-or-


 

Live Flight TrackerFlight Track Log ✈ SWA143 ✈ 12-Jun-2013 ✈ KPHX - KONT

Flight Track Log - Related Links

Times and Time Zones

All times are in EDT time to prevent confusion due to time zone crossing. See the SWA143 flight status page for this flight to view local times or setup timezone preferences in your user account.

Time Position Orientation Groundspeed Altitude Reporting Facility
EDT Latitude Longitude Course Direction KTS MPH feet Rate Location/Type
05:27PM 33.4333 -112.0333 248° West 216 249 1,900  Level Phoenix TRACON
05:29PM 33.4000 -112.1333 248° West 235 270 4,600 1,800 Climbing Phoenix TRACON
05:30PM 33.3847 -112.2147 257° West 260 299 6,500 2,100 Climbing Albuquerque Center
05:31PM 33.3936 -112.3078 277° West 290 334 9,100 2,160 Climbing Albuquerque Center
05:32PM 33.4267 -112.3997 293° West 301 346 11,000 1,740 Climbing Albuquerque Center
05:33PM 33.4492 -112.5114 284° West 350 403 12,800 2,160 Climbing Albuquerque Center
05:34PM 33.4500 -112.6408 270° West 357 411 15,500 2,160 Climbing Albuquerque Center
05:35PM 33.4517 -112.7611 271° West 361 415 17,300 1,920 Climbing Albuquerque Center
05:36PM 33.4653 -112.8842 278° West 372 428 19,500 1,860 Climbing Albuquerque Center
05:37PM 33.4950 -113.0397 283° West 395 455 21,200 1,800 Climbing Albuquerque Center
05:38PM 33.5206 -113.1731 283° West 408 470 23,300 1,800 Climbing Albuquerque Center
05:39PM 33.5447 -113.3042 283° West 407 468 25,000 1,440 Climbing Albuquerque Center
05:40PM 33.5717 -113.4389 284° West 413 475 26,300 1,320 Climbing Albuquerque Center
05:41PM 33.5961 -113.5747 282° West 418 481 27,800 1,380 Climbing Albuquerque Center
05:42PM 33.6253 -113.7350 282° West 425 489 29,200 1,020 Climbing Albuquerque Center
05:43PM 33.6517 -113.8739 283° West 428 493 30,000 360 Climbing Albuquerque Center
05:44PM 33.6706 -114.0136 279° West 424 488 30,000  Level Albuquerque Center
05:45PM 33.6814 -114.1558 275° West 427 491 30,000  Level Albuquerque Center
05:46PM 33.6944 -114.3031 276° West 427 491 30,000  Level Albuquerque Center
05:47PM 33.7069 -114.4433 276° West 425 489 30,000  Level Albuquerque Center
05:48PM 33.7258 -114.6183 277° West 420 483 30,000  Level Los Angeles Center
05:49PM 33.7369 -114.7583 275° West 422 486 30,000  Level Los Angeles Center
05:51PM 33.7497 -114.8981 276° West 422 486 30,000  Level Los Angeles Center
05:52PM 33.7631 -115.0650 276° West 420 483 30,000  Level Los Angeles Center
05:53PM 33.7747 -115.2058 276° West 426 490 30,000 -60 Level Los Angeles Center
05:54PM 33.7869 -115.3428 276° West 417 480 29,900 -540 Descending Los Angeles Center
05:55PM 33.7975 -115.4797 275° West 414 476 28,900 -1,020 Descending Los Angeles Center
05:56PM 33.8069 -115.6106 275° West 401 461 27,900 -1,080 Descending Los Angeles Center
05:57PM 33.8192 -115.7642 276° West 389 448 26,700 -1,080 Descending Los Angeles Center
05:58PM 33.8292 -115.8914 275° West 387 445 25,700 -960 Descending Los Angeles Center
05:59PM 33.8397 -116.0214 276° West 390 449 24,800 -900 Descending Los Angeles Center
06:00PM 33.8489 -116.1500 275° West 389 448 23,900 -780 Descending Los Angeles Center
06:01PM 33.8592 -116.2744 276° West 374 430 23,300 -1,560 Descending Los Angeles Center
06:02PM 33.8697 -116.4228 275° West 372 428 20,700 -2,280 Descending Los Angeles Center
06:03PM 33.8756 -116.5417 273° West 359 413 18,700 -1,920 Descending Los Angeles Center
06:04PM 33.8806 -116.6553 273° West 344 396 16,800 -1,860 Descending Los Angeles Center
06:05PM 33.8869 -116.7678 274° West 340 391 14,900 -2,100 Descending Los Angeles Center
06:06PM 33.8983 -116.8747 277° West 332 382 12,500 -2,160 Descending Los Angeles Center
06:07PM 33.9333 -117.0000 289° West 305 351 10,300 -1,920 Descending Southern California TRACON
06:08PM 33.9667 -117.0833 296° West 287 330 8,500 -1,800 Descending Southern California TRACON
06:09PM 34.0000 -117.1833 292° West 278 320 6,700 -1,260 Descending Southern California TRACON
06:10PM 34.0167 -117.2667 284° West 255 293 6,000 -900 Descending Southern California TRACON
06:11PM 34.0500 -117.3333 301° West 243 280 4,900 -960 Descending Southern California TRACON
06:12PM 34.0500 -117.4167 270° West 220 253 4,100 -1,080 Descending Southern California TRACON
06:13PM 34.0500 -117.4833 270° West 192 221 2,800 -1,200 Descending Southern California TRACON
06:14PM 34.0500 -117.5333 270° West 144 166 1,800 -900 Descending Southern California TRACON
06:15PM 34.0500 -117.5667 270° West 138 159 1,100 -720 Descending Southern California TRACON
06:17PM 34.0500 -117.6000 287° West  Level FlightAware Approximate
06:24PM 34.0560 -117.6012 287° West  Level Estimated